• In Romania
  • List of Countries
  • For 7 days
  • Water Temperature
  • Satellite Maps
  • Weather Map
  • Weather Widgets
  • user-avatar
    Login

    Hourly Weather Lampeter

    Today, 17 February, Saturday

    Time Temperature Precipitation Wind Pressure Humidity
    00:00 +2°C° 0.2 mm 6 mps 755 mmHg 88%
    01:00 +2°C° 0.7 mm 6 mps 755 mmHg 89%
    02:00 +2°C° 0.7 mm 6 mps 755 mmHg 90%
    03:00 +2°C° 0.7 mm 6 mps 755 mmHg 90%
    04:00 +2°C° 0.2 mm 6 mps 754 mmHg 92%
    05:00 +2°C° 0.2 mm 5 mps 754 mmHg 94%
    06:00 +1°C° 0 mm 4 mps 755 mmHg 95%
    07:00 +1°C° 0 mm 4 mps 755 mmHg 95%
    08:00 +1°C° 0 mm 4 mps 755 mmHg 95%
    09:00 +3°C° 0 mm 4 mps 755 mmHg 95%
    10:00 +3°C° 0 mm 4 mps 755 mmHg 91%
    11:00 +3°C° 0 mm 5 mps 756 mmHg 88%
    12:00 +5°C° 0 mm 5 mps 756 mmHg 84%
    13:00 +5°C° 0 mm 5 mps 756 mmHg 83%
    14:00 +5°C° 0 mm 5 mps 756 mmHg 81%
    15:00 +5°C° 0 mm 5 mps 756 mmHg 79%
    16:00 +4°C° 0 mm 4 mps 757 mmHg 84%
    17:00 +3°C° 0 mm 3 mps 757 mmHg 88%
    18:00 +2°C° 0 mm 3 mps 757 mmHg 92%
    19:00 +2°C° 0 mm 3 mps 757 mmHg 92%
    20:00 +2°C° 0 mm 3 mps 758 mmHg 93%
    21:00 +1°C° 0 mm 3 mps 758 mmHg 94%
    22:00 +1°C° 0 mm 3 mps 758 mmHg 94%
    23:00 +2°C° 0 mm 2 mps 758 mmHg 94%

    Tomorrow, 18 February, Sunday

    Time Temperature Precipitation Wind Pressure Humidity
    00:00 +2°C° 0 mm 2 mps 758 mmHg 95%
    01:00 +2°C° 0 mm 2 mps 758 mmHg 95%
    02:00 +2°C° 0 mm 2 mps 758 mmHg 95%
    03:00 +1°C° 0 mm 2 mps 758 mmHg 95%
    04:00 +1°C° 0 mm 2 mps 758 mmHg 95%
    05:00 +1°C° 0 mm 2 mps 758 mmHg 95%
    06:00 +1°C° 0 mm 2 mps 758 mmHg 95%
    07:00 +3°C° 0 mm 1 mps 758 mmHg 94%
    08:00 +3°C° 0 mm 1 mps 758 mmHg 94%
    09:00 +4°C° 0 mm 1 mps 758 mmHg 93%
    10:00 +5°C° 0 mm 1 mps 758 mmHg 90%
    11:00 +6°C° 0 mm 1 mps 758 mmHg 86%
    12:00 +7°C° 0 mm 2 mps 758 mmHg 83%
    13:00 +7°C° 0 mm 2 mps 758 mmHg 84%
    14:00 +7°C° 0 mm 2 mps 757 mmHg 84%
    15:00 +7°C° 0 mm 2 mps 757 mmHg 85%
    16:00 +7°C° 0 mm 2 mps 757 mmHg 88%
    17:00 +6°C° 0 mm 2 mps 757 mmHg 91%
    18:00 +5°C° 0 mm 2 mps 757 mmHg 94%
    19:00 +5°C° 0.1 mm 2 mps 757 mmHg 95%
    20:00 +5°C° 0.1 mm 2 mps 757 mmHg 95%
    21:00 +5°C° 0.1 mm 2 mps 756 mmHg 96%
    22:00 +6°C° 0.2 mm 2 mps 756 mmHg 96%
    23:00 +6°C° 0.2 mm 2 mps 756 mmHg 96%

    Day after tomorrow, 19 February, Monday

    Time Temperature Precipitation Wind Pressure Humidity
    00:00 +6°C° 0.2 mm 2 mps 756 mmHg 97%
    01:00 +6°C° 0.1 mm 2 mps 756 mmHg 97%
    02:00 +6°C° 0.1 mm 2 mps 756 mmHg 97%
    03:00 +6°C° 0.1 mm 2 mps 756 mmHg 97%
    04:00 +7°C° 0.1 mm 2 mps 756 mmHg 97%
    05:00 +7°C° 0.1 mm 2 mps 756 mmHg 97%
    06:00 +7°C° 0.1 mm 2 mps 755 mmHg 97%
    07:00 +7°C° 0 mm 2 mps 756 mmHg 96%
    08:00 +7°C° 0 mm 3 mps 756 mmHg 96%
    09:00 +8°C° 0 mm 3 mps 756 mmHg 95%
    10:00 +9°C° 0 mm 3 mps 756 mmHg 93%
    11:00 +9°C° 0 mm 3 mps 756 mmHg 90%
    12:00 +10°C° 0 mm 4 mps 757 mmHg 87%
    13:00 +10°C° 0 mm 4 mps 757 mmHg 86%
    14:00 +11°C° 0 mm 3 mps 757 mmHg 84%
    15:00 +11°C° 0 mm 3 mps 756 mmHg 83%
    16:00 +10°C° 0 mm 3 mps 757 mmHg 86%
    17:00 +9°C° 0 mm 3 mps 757 mmHg 90%
    18:00 +8°C° 0 mm 2 mps 757 mmHg 93%
    19:00 +8°C° 0 mm 2 mps 757 mmHg 94%
    20:00 +7°C° 0 mm 3 mps 757 mmHg 94%
    21:00 +7°C° 0 mm 3 mps 757 mmHg 94%
    22:00 +6°C° 0.2 mm 4 mps 758 mmHg 92%
    23:00 +6°C° 0.2 mm 4 mps 758 mmHg 89%

    20 February, Tuesday

    Time Temperature Precipitation Wind Pressure Humidity
    00:00 +6°C° 0.2 mm 5 mps 758 mmHg 87%
    01:00 +5°C° 0.2 mm 5 mps 759 mmHg 88%
    02:00 +3°C° 0.2 mm 5 mps 759 mmHg 88%
    03:00 +3°C° 0.2 mm 4 mps 759 mmHg 89%
    04:00 +3°C° 0 mm 4 mps 760 mmHg 89%
    05:00 +3°C° 0 mm 4 mps 760 mmHg 90%
    06:00 +1°C° 0 mm 4 mps 761 mmHg 90%
    07:00 +3°C° 0 mm 4 mps 762 mmHg 88%
    08:00 +3°C° 0 mm 4 mps 762 mmHg 86%
    09:00 +2°C° 0 mm 5 mps 763 mmHg 84%
    10:00 +3°C° 0 mm 5 mps 763 mmHg 79%
    11:00 +5°C° 0 mm 5 mps 764 mmHg 73%
    12:00 +6°C° 0 mm 5 mps 764 mmHg 68%
    13:00 +6°C° 0 mm 4 mps 764 mmHg 67%
    14:00 +7°C° 0 mm 4 mps 765 mmHg 66%
    15:00 +8°C° 0 mm 3 mps 765 mmHg 65%
    16:00 +5°C° 0 mm 3 mps 765 mmHg 71%
    17:00 +4°C° 0 mm 3 mps 765 mmHg 77%
    18:00 +4°C° 0 mm 2 mps 766 mmHg 83%
    19:00 +3°C° 0 mm 2 mps 766 mmHg 85%
    20:00 +3°C° 0 mm 2 mps 766 mmHg 86%
    21:00 +3°C° 0 mm 2 mps 767 mmHg 88%
    22:00 +2°C° 0 mm 2 mps 767 mmHg 89%
    23:00 +2°C° 0 mm 2 mps 767 mmHg 89%

    21 February, Wednesday

    Time Temperature Precipitation Wind Pressure Humidity
    00:00 +2°C° 0 mm 2 mps 767 mmHg 89%
    01:00 +1°C° 0 mm 2 mps 767 mmHg 89%
    02:00 +1°C° 0 mm 2 mps 767 mmHg 89%
    03:00 +1°C° 0 mm 2 mps 767 mmHg 89%
    04:00 +1°C° 0 mm 2 mps 767 mmHg 89%
    05:00 +1°C° 0 mm 2 mps 767 mmHg 88%
    06:00 +2°C° 0 mm 1 mps 767 mmHg 88%
    07:00 +2°C° 0 mm 1 mps 767 mmHg 85%
    08:00 +3°C° 0 mm 1 mps 767 mmHg 82%
    09:00 +4°C° 0 mm 1 mps 767 mmHg 80%
    10:00 +4°C° 0 mm 2 mps 767 mmHg 75%
    11:00 +5°C° 0 mm 2 mps 767 mmHg 71%
    12:00 +6°C° 0 mm 2 mps 767 mmHg 67%
    13:00 +6°C° 0 mm 2 mps 766 mmHg 66%
    14:00 +6°C° 0 mm 2 mps 766 mmHg 66%
    15:00 +6°C° 0 mm 2 mps 766 mmHg 66%
    16:00 +5°C° 0 mm 2 mps 766 mmHg 73%
    17:00 +3°C° 0 mm 2 mps 766 mmHg 81%
    18:00 +2°C° 0 mm 2 mps 766 mmHg 88%
    19:00 +2°C° 0 mm 2 mps 766 mmHg 90%
    20:00 +1°C° 0 mm 2 mps 766 mmHg 92%
    21:00 +1°C° 0 mm 2 mps 766 mmHg 93%
    22:00 +2°C° 0 mm 1 mps 766 mmHg 93%
    23:00 +1°C° 0 mm 1 mps 766 mmHg 94%

    22 February, Thursday

    Time Temperature Precipitation Wind Pressure Humidity
    00:00 +1°C° 0 mm 1 mps 766 mmHg 94%
    01:00 +1°C° 0 mm 1 mps 766 mmHg 94%
    02:00 +1°C° 0 mm 1 mps 765 mmHg 94%
    03:00 +1°C° 0 mm 1 mps 765 mmHg 94%
    04:00 +1°C° 0 mm 1 mps 765 mmHg 93%
    05:00 +1°C° 0 mm 1 mps 765 mmHg 93%
    06:00 +1°C° 0 mm 1 mps 764 mmHg 93%
    07:00 +2°C° 0 mm 1 mps 764 mmHg 90%
    08:00 +2°C° 0 mm 1 mps 765 mmHg 87%
    09:00 +3°C° 0 mm 1 mps 765 mmHg 84%
    10:00 +4°C° 0 mm 1 mps 764 mmHg 77%
    11:00 +4°C° 0 mm 2 mps 764 mmHg 71%
    12:00 +5°C° 0 mm 2 mps 764 mmHg 64%
    13:00 +5°C° 0 mm 2 mps 764 mmHg 63%
    14:00 +6°C° 0 mm 2 mps 763 mmHg 62%
    15:00 +6°C° 0 mm 2 mps 763 mmHg 61%
    16:00 +5°C° 0 mm 2 mps 763 mmHg 67%
    17:00 +3°C° 0 mm 2 mps 763 mmHg 73%
    18:00 +2°C° 0 mm 2 mps 763 mmHg 79%
    19:00 +2°C° 0 mm 2 mps 763 mmHg 82%
    20:00 +1°C° 0 mm 2 mps 763 mmHg 84%
    21:00 +1°C° 0 mm 2 mps 763 mmHg 87%
    22:00 +1°C° 0 mm 2 mps 763 mmHg 88%
    23:00 -1°C° 0 mm 2 mps 763 mmHg 88%
    Show more